OPS 4682 DEB, 38420

Orbit data source: Space-Track

OPS 4682 DEB, 38420 is space debris in LEO originally from a launch on Sat, 03 Apr 1965 UTC launched from the Air Force Western Test Range (AFWTR). Debris objects in space refer to the collection of defunct objects orbiting the Earth. Examples of debris include non-operational satellites, rocket bodies, and fragments generated from explosions, collisions, or faulty payload assembly.

Loading next visibility...
Identifier
38420, 1965-027DZ
Orbit
LEO
Country
Flag of USUS
Related business
Manufacturer
Unknown
Mission
Spacecraft
Bus & Motor
Unknown
Mass
Unknown
Launch date (UTC)
1965-04-03 (61 years ago)
Launch vehicle
Unknown
Launch site
Air Force Western Test Range (AFWTR)
Object type
Payload
Rocket body
Debris
Shape & HBR
Unknown shape, 0.1 m
Radar Cross Section
Small (<0.1 m²)

Expand to show TLE details & history
Last TLE update: 1 day ago

TLE from 1 day ago
0 OPS 4682 DEB
1 38420U 65027DZ  25301.42766458  .00000088  00000-0  26648-3 0  9995
2 38420  90.2476   5.7029 0031060 161.0477 199.1809 12.99864924524277
Epoch: 2025-10-28T10:15Z
TLE epoch observation values (Epoch: 2025-10-28T10:15:50.219Z)
Latitude
0.00002°
Longitude
174.72835°
Altitude
1,287.926 km
Speed
7.202 km/s
True Right ascension
00h 22m 48s
True Declination
0° 00' 00"
Sunlit
Object was in full shadow at epoch
Visualization orbit readout
Latitude
Unknown
Longitude
Unknown
Altitude
Unknown
Speed
Unknown
Apparent Right ascension
Unknown
Apparent Declination
Unknown
Sunlit
N/A
Visualization observer readout
Local Sidereal Time
10:33:10
Azimuth
Unknown
Elevation
Unknown
Doppler factor
Unknown
Orbital elements
Apogee altitude
1,283.466 km
Perigee altitude
1,236.02 km
Semi-major axis
7,637.88 km
Eccentricity
0.00311
Inclination
90.2476°
RAAN
5.7029°
Arg. of periapsis
161.0477°
True anomaly
199.06439°
Mean anomaly
199.1809°
Eccentric anomaly
199.1226°
Mean motion
3.2515 °/min
Orbital period
110.72 mins
BSTAR
0.00026648
Loading maneuver chart data...
Computing Atmospheric mass density...
Loading historical data...
Loading historical data...
Loading historical data...
Loading historical data...
Loading historical data...
Loading historical data...
Loading historical data...

Documentation

Showing up to 5 results
|